This is the latest recevied weather packets stored in our database for station/object VY2CRA-4. If no packets are shown the sender has not sent any weather packets the latest 10 day(s).
| Time | Temp. | Humidity | Pressure | Rain* | Wind** | Luminosity | Snow |
|---|---|---|---|---|---|---|---|
| 1777576905 | 22.22° C | 21% | 1011.2 hPa | 0 mm | - | - | - |
| 1777575706 | 22.22° C | 20% | 1011.3 hPa | 0 mm | - | - | - |
| 1777574505 | 22.22° C | 20% | 1011.5 hPa | 0 mm | - | - | - |
| 1777573302 | 22.22° C | 19% | 1011.7 hPa | 0 mm | - | - | - |
| 1777572102 | 22.22° C | 20% | 1011.8 hPa | 0 mm | - | - | - |
| 1777569700 | 22.22° C | 20% | 1012.2 hPa | 0 mm | - | - | - |
| 1777568500 | 22.22° C | 21% | 1012.3 hPa | 0 mm | - | - | - |
| 1777567298 | 21.11° C | 22% | 1012.5 hPa | 0 mm | - | - | - |
| 1777566099 | 20.56° C | 23% | 1012.7 hPa | 0 mm | - | - | - |
| 1777563696 | 20° C | 24% | 1013.4 hPa | 0 mm | - | - | - |
| 1777562494 | 18.89° C | 26% | 1013.5 hPa | 0 mm | - | - | - |
| 1777561293 | 18.89° C | 26% | 1013.6 hPa | 0 mm | - | - | - |
| 1777560092 | 18.89° C | 25% | 1013.8 hPa | 0 mm | - | - | - |
| 1777558891 | 19.44° C | 25% | 1014 hPa | 0 mm | - | - | - |
| 1777557691 | 19.44° C | 24% | 1014 hPa | 0 mm | - | - | - |
| 1777556489 | 19.44° C | 24% | 1014 hPa | 0 mm | - | - | - |
| 1777555289 | 20° C | 22% | 1014.3 hPa | 0 mm | - | - | - |
| 1777554089 | 20.56° C | 21% | 1014.2 hPa | 0 mm | - | - | - |
| 1777552887 | 21.11° C | 20% | 1014.2 hPa | 0 mm | - | - | - |
| 1777551686 | 22.78° C | 17% | 1014.2 hPa | 0 mm | - | - | - |
| 1777550485 | 24.44° C | 13% | 1014.3 hPa | 0 mm | - | - | - |
| 1777549286 | 21.11° C | 23% | 1014.4 hPa | 0 mm | - | - | - |
| 1777548083 | 15.56° C | 39% | 1014.9 hPa | 0 mm | - | - | - |
| 1777546882 | 12.22° C | 47% | 1014.7 hPa | 0 mm | - | - | - |
| 1777545681 | 9.44° C | 54% | 1014.4 hPa | 0 mm | - | - | - |
* Rain since midnight (hover to see other rain measurements)
** Current wind speed in m/s (hover to see current wind gust speed)